Location: Clarion
(42.7316°N, 93.7330°W)
Time: 08:29:38
(UTC+00:00)

ALOS - Pass Details

Date: 22 April 2026
Orbit: 660 x 663 km, 98.1° (Epoch: 17 May)

Event Time Altitude Azimuth Distance (km) Brightness Sun altitude
Rises 08:43:59 0° 18° (NNE) 3,002 6.7 -25.1°
Reaches altitude 10° 08:46:17 10° 24° (NNE) 2,085 5.7 -24.8°
Maximum altitude 08:50:42 49° 100° (E) 855 2.9 -24.3°
Enters shadow 08:51:46 40° 141° (SE) 972 2.9 -24.2°
